Regional Weather Roundup
Issued by NWS Cleveland, OH

Home | Current Version | Previous Version | Graphics & Text | Print | Product List | Glossary On
Versions: 1 2 3 4 5 6 7 8 9 10 11 12 13 14 15 16 17 18 19 20 21 22 23 24 25 26 27 28 29 30 31 32 33 34 35 36 37 38 39 40 41 42 43 44 45 46 47 48 49 50
000
ASUS41 KCLE 261002
RWRCLE
OHIO REGIONAL WEATHER ROUNDUP
NATIONAL WEATHER SERVICE CLEVELAND, OH
600 AM EDT SAT JUL 26 2014

NOTE: "FAIR" INDICATES FEW OR NO CLOUDS BELOW 12,000 FEET WITH NO
SIGNIFICANT WEATHER AND/OR OBSTRUCTIONS TO VISIBILITY.

OHZ001>008-015>018-024>027-034-035-043-044-261100-
   NORTHWEST OHIO

CITY           SKY/WX    TMP DP  RH WIND       PRES   REMARKS
DEFIANCE       CLEAR     62  57  83 S3        29.93F
FINDLAY        CLEAR     61  55  81 S7        29.94F
TOLEDO EXPRESS CLEAR     58  56  93 CALM      29.93F
TOLEDO EXEC    CLEAR     60  55  83 S5        29.95S
LIMA           PTCLDY    63  57  81 S7        29.95F
$$

OHZ009>014-019>023-028>033-038-089-261100-
   NORTHEAST OHIO

CITY           SKY/WX    TMP DP  RH WIND       PRES   REMARKS
CLE-HOPKINS    CLOUDY    63  59  87 S8        29.98F
CLE-LAKEFRONT  CLOUDY    65  60  84 SE8       29.95S
CUY CO. ARPT   NOT AVBL
LORAIN-ELYRIA  CLEAR     63  59  87 CALM      29.98R
ASHTABULA      MOCLDY    61  56  83 S3        29.99S
AKRON-CANTON   PTCLDY    64  60  87 S3        30.00S
WOOSTER        CLEAR     61  58  90 CALM      30.00R
MANSFIELD      CLEAR     62  57  83 S3        30.00R
YOUNGSTOWN     CLOUDY    60  56  86 SE6       29.99S
$$

OHZ042-051>053-060>062-070>072-077>081-261100-
  SOUTHWEST OHIO

CITY           SKY/WX    TMP DP  RH WIND       PRES   REMARKS
CINC-COVINGTON CLOUDY    66  60  81 S6        29.97F
CINC-LUNKEN    MOCLDY    65  63  93 CALM      29.98S
HAMILTON       MOCLDY    66  64  93 CALM      29.98S
DAYTON         CLOUDY    67  60  78 SE6       29.97F
WRIGHT-PAT AFB MOCLDY    67  61  83 SE5       29.97F
DAYTON GENERAL CLOUDY    66  61  84 S7        29.97S
WILMINGTON     CLOUDY    65  60  84 S5        29.99S
$$

OHZ036-037-039>041-045>050-054>059-063>069-073>076-082>088-261100-
  CENTRAL AND SOUTHEAST OHIO

CITY           SKY/WX    TMP DP  RH WIND       PRES   REMARKS
COLUMBUS       MOCLDY    69  59  70 S3        29.98S
OSU AIRPORT    PTCLDY    66  59  78 S7        29.98S
BOLTON FIELD   CLOUDY    63  61  93 S6        29.99S
RICKENBACK AFB CLOUDY    65  58  79 S3        29.98S
NEWARK         CLOUDY    63  61  93 CALM      29.99R
MARION         CLEAR     61  58  90 S7        29.98R
LANCASTER      PTCLDY    62  59  90 S3        30.00R
ZANESVILLE     CLOUDY    66  60  81 CALM      30.00S
NEW PHILLY     CLOUDY    63  62  97 SE5       30.00S
$$



USA.gov is the U.S. government's official web portal to all federal, state and local government web resources and services.